QPF
0.00 0.00 0.00 0.00 0.00 0.00 0.00 0.00 0.00 0.00 0.00 0.00 0.00 0.00 0.00 0.00 0.00 0.00 0.00 0.00 0.00 0.00 0.00 0.00 0.00 0.00 0.00 0.00 0.00 0.00 0.00 0.00 0.00 0.00 0.00 0.00 0.00 0.00 0.00 0.00 0.00 0.00 0.00 0.00
0.00 0.00 0.00 0.01 0.00 0.00 0.00 0.00 0.00 0.00 0.00 0.00 0.00 0.00 0.00 0.00 0.00 0.00 0.00 0.00 0.00 0.00 0.00 0.00 0.00 0.00 0.00 0.00 0.00 0.00 0.00 0.00 0.00 0.00 0.00 0.00 0.00 0.00 0.00 0.00 0.00 0.00 0.00 0.00
0.00 0.00 0.00 0.01 0.00 0.00 0.00 0.00 0.00 0.00 0.00 0.00 0.00 0.00 0.00 0.00 0.00 0.00 0.00 0.00 0.00 0.00 0.00 0.00 0.00 0.00 0.00 0.00 0.00 0.00 0.00 0.00 0.00 0.00 0.00 0.00 0.00 0.00 0.00 0.00 0.00 0.00 0.00 0.00
0.00 0.00 0.00 0.00 0.00 0.00 0.00 0.00 0.00 0.00 0.00 0.00 0.00 0.00 0.00 0.00 0.00 0.00 0.00 0.00 0.00 0.00 0.00 0.00 0.00 0.00 0.00 0.00 0.00 0.00 0.00 0.00 0.00 0.00 0.00 0.00 0.00 0.00 0.00 0.00 0.00 0.00 0.00 0.00
0.00 0.00 0.00 0.00 0.00 0.00 0.00 0.00 0.00 0.00 0.00 0.00 0.00 0.00 0.00 0.00 0.00 0.00 0.00 0.00 0.00 0.00 0.00 0.00 0.00 0.00 0.00 0.00 0.00 0.00 0.00 0.00 0.00 0.00 0.00 0.00 0.00 0.00 0.00 0.00 0.00 0.00 0.00 0.00
0.00 0.00 0.00 0.00 0.00 0.00 0.00 0.00 0.00 0.00 0.00 0.00 0.00 0.00 0.00 0.00 0.00 0.00 0.00 0.00 0.00 0.00 0.00 0.00 0.00 0.00 0.00 0.00 0.00 0.00 0.00 0.00 0.00 0.00 0.00 0.00 0.00 0.00 0.00 0.00 0.00 0.00 0.00 0.00
0.00 0.00 0.00 0.00 0.00 0.00 0.01 0.00 0.00 0.00 0.00 0.00 0.00 0.00 0.00 0.00 0.00 0.00 0.00 0.00 0.00 0.00 0.00 0.00 0.00 0.00 0.00 0.00 0.00 0.00 0.00 0.00 0.00 0.00 0.00 0.00 0.00 0.00 0.00 0.00 0.00 0.00 0.00 0.00
0.00 0.00 0.00 0.00 0.00 0.01 0.00 0.00 0.00 0.00 0.00 0.00 0.00 0.00 0.00 0.00 0.00 0.00 0.00 0.00 0.00 0.00 0.00 0.00 0.00 0.00 0.00 0.00 0.00 0.00 0.00 0.00 0.00 0.00 0.00 0.00 0.00 0.00 0.00 0.00 0.00 0.00 0.00 0.00
0.00 0.00 0.00 0.00 0.00 0.00 0.00 0.00 0.00 0.00 0.00 0.00 0.00 0.00 0.00 0.00 0.00 0.00 0.00 0.00 0.00 0.00 0.00 0.00 0.00 0.00 0.00 0.00 0.00 0.00 0.00 0.00 0.00 0.00 0.00 0.00 0.00 0.00 0.00 0.00 0.00 0.00 0.00 0.00
0.00 0.00 0.00 0.00 0.00 0.00 0.00 0.00 0.00 0.00 0.00 0.00 0.00 0.00 0.00 0.00 0.00 0.00 0.00 0.00 0.00 0.00 0.00 0.00 0.00 0.00 0.00 0.00 0.00 0.00 0.00 0.00 0.00 0.00 0.00 0.00 0.00 0.00 0.00 0.00 0.00 0.00 0.00 0.00
0.00 0.00 0.00 0.00 0.00 0.00 0.00 0.00 0.00 0.00 0.00 0.00 0.00 0.00 0.00 0.00 0.00 0.00 0.00 0.00 0.00 0.00 0.00 0.00 0.00 0.00 0.00 0.00 0.00 0.00 0.00 0.00 0.00 0.00 0.00 0.00 0.00 0.00 0.00 0.00 0.00 0.00 0.00 0.00
0.00 0.00 0.00 0.00 0.00 0.00 0.00 0.00 0.00 0.00 0.00 0.00 0.00 0.00 0.00 0.00 0.00 0.00 0.00 0.00 0.00 0.00 0.00 0.00 0.00 0.00 0.00 0.00 0.00 0.00 0.00 0.00 0.00 0.00 0.00 0.00 0.00 0.00 0.00 0.00 0.00 0.00 0.00 0.00
0.00 0.00 0.00 0.00 0.00 0.00 0.00 0.00 0.00 0.00 0.00 0.00 0.00 0.00 0.00 0.00 0.00 0.00 0.00 0.00 0.00 0.00 0.00 0.00 0.00 0.00 0.00 0.00 0.00 0.00 0.00 0.00 0.00 0.00 0.00 0.00 0.00 0.00 0.00 0.00 0.00 0.00 0.00 0.00
0.00 0.00 0.00 0.00 0.00 0.00 0.00 0.00 0.00 0.00 0.00 0.00 0.00 0.00 0.00 0.00 0.00 0.00 0.00 0.00 0.00 0.00 0.00 0.00 0.00 0.00 0.00 0.00 0.00 0.00 0.00 0.00 0.00 0.00 0.00 0.00 0.00 0.00 0.00 0.00 0.00 0.00 0.00 0.00
0.00 0.00 0.00 0.00 0.00 0.00 0.00 0.00 0.00 0.00 0.00 0.00 0.00 0.00 0.00 0.00 0.00 0.00 0.00 0.00 0.00 0.00 0.00 0.00 0.00 0.00 0.00 0.00 0.00 0.00 0.00 0.00 0.00 0.00 0.00 0.00 0.00 0.00 0.00 0.00 0.00 0.00 0.00 0.00
0.00 0.00 0.00 0.00 0.00 0.00 0.00 0.00 0.00 0.00 0.00 0.00 0.00 0.00 0.00 0.00 0.00 0.00 0.00 0.00 0.00 0.00 0.00 0.00 0.00 0.00 0.00 0.00 0.00 0.00 0.00 0.00 0.00 0.00 0.00 0.00 0.00 0.00 0.00 0.00 0.00 0.00 0.00 0.00
0.00 0.00 0.00 0.00 0.00 0.00 0.00 0.00 0.00 0.00 0.00 0.00 0.00 0.00 0.00 0.00 0.00 0.00 0.00 0.00 0.00 0.00 0.00 0.00 0.00 0.00 0.00 0.00 0.00 0.00 0.00 0.00 0.00 0.00 0.00 0.00 0.00 0.00 0.00 0.00 0.00 0.00 0.00 0.00
0.00 0.00 0.01 0.00 0.00 0.00 0.00 0.00 0.00 0.00 0.00 0.00 0.00 0.00 0.00 0.00 0.00 0.00 0.00 0.00 0.00 0.00 0.00 0.00 0.00 0.00 0.00 0.00 0.00 0.00 0.00 0.00 0.00 0.00 0.00 0.00 0.00 0.00 0.00 0.00 0.00 0.00 0.00 0.00
0.00 0.00 0.00 0.00 0.00 0.00 0.00 0.00 0.00 0.00 0.00 0.00 0.00 0.00 0.00 0.00 0.00 0.00 0.00 0.00 0.00 0.00 0.00 0.00 0.00 0.00 0.00 0.00 0.00 0.00 0.00 0.00 0.00 0.00 0.00 0.00 0.00 0.00 0.00 0.00 0.00 0.00 0.00 0.00
0.00 0.01 0.01 0.00 0.00 0.00 0.00 0.00 0.00 0.00 0.00 0.00 0.00 0.00 0.00 0.00 0.00 0.00 0.00 0.00 0.00 0.00 0.00 0.00 0.00 0.00 0.00 0.00 0.00 0.00 0.00 0.00 0.00 0.00 0.00 0.00 0.00 0.00 0.00 0.00 0.00 0.00 0.00 0.00
0.00 0.00 0.00 0.00 0.00 0.00 0.00 0.00 0.00 0.00 0.00 0.00 0.00 0.00 0.00 0.00 0.00 0.00 0.00 0.00 0.00 0.00 0.00 0.00 0.00 0.00 0.00 0.00 0.00 0.00 0.00 0.00 0.00 0.00 0.00 0.00 0.00 0.00 0.00 0.00 0.00 0.00 0.00 0.00
0.00 0.00 0.00 0.00 0.00 0.00 0.00 0.00 0.00 0.00 0.00 0.00 0.00 0.00 0.00 0.00 0.00 0.00 0.00 0.00 0.00 0.00 0.00 0.00 0.00 0.00 0.00 0.00 0.00 0.00 0.00 0.00 0.00 0.00 0.00 0.00 0.00 0.00 0.00 0.00 0.00 0.00 0.00 0.00
0.00 0.00 0.00 0.00 0.00 0.00 0.00 0.00 0.00 0.00 0.00 0.00 0.00 0.00 0.00 0.00 0.00 0.00 0.00 0.00 0.00 0.00 0.00 0.00 0.00 0.00 0.00 0.00 0.00 0.00 0.00 0.00 0.00 0.00 0.00 0.00 0.00 0.00 0.00 0.00 0.00 0.00 0.00 0.00
0.00 0.00 0.00 0.00 0.00 0.00 0.00 0.00 0.00 0.00 0.00 0.00 0.00 0.00 0.00 0.00 0.00 0.00 0.00 0.00 0.00 0.00 0.00 0.00 0.00 0.00 0.00 0.00 0.00 0.00 0.00 0.00 0.00 0.00 0.00 0.00 0.00 0.00 0.00 0.00 0.00 0.00 0.00 0.00
0.00 0.00 0.00 0.00 0.00 0.00 0.00 0.00 0.00 0.00 0.00 0.00 0.00 0.00 0.00 0.00 0.00 0.00 0.00 0.00 0.00 0.00 0.00 0.00 0.00 0.00 0.00 0.00 0.00 0.00 0.00 0.00 0.00 0.00 0.00 0.00 0.00 0.00 0.00 0.00 0.00 0.00 0.00 0.00
0.00 0.00 0.00 0.00 0.00 0.00 0.00 0.00 0.00 0.00 0.00 0.00 0.00 0.00 0.00 0.00 0.00 0.00 0.00 0.00 0.00 0.00 0.00 0.00 0.00 0.00 0.00 0.00 0.00 0.00 0.00 0.00 0.00 0.00 0.00 0.00 0.00 0.00 0.00 0.00 0.00 0.00 0.00 0.00
0.00 0.00 0.00 0.00 0.00 0.00 0.00 0.00 0.00 0.00 0.00 0.00 0.00 0.00 0.00 0.00 0.00 0.00 0.00 0.00 0.00 0.00 0.00 0.00 0.00 0.00 0.00 0.00 0.00 0.00 0.00 0.00 0.00 0.00 0.00 0.00 0.00 0.00 0.00 0.00 0.00 0.00 0.00 0.00
MSLP
999.12 996.35 996.62 995.44 995.58 995.87 995.89 995.24 995.85 992.87 992.93 991.51 993.96 994.45 994.66 995.26 996.47 997.45 998.25 998.89 999.15 999.82 1000.75 1001.74 1002.75 1003.70 1004.57 1005.77 1006.99 1007.97 1008.85 1009.90 1010.80 1011.56 1012.17 1012.84 1013.63 1014.41 1015.21 1015.91 1016.46 1017.11 1017.86 1018.42
1001.08 999.68 997.44 995.79 994.64 995.11 995.03 994.33 994.49 992.93 992.35 990.74 993.40 993.99 994.93 995.35 996.00 996.77 997.15 997.69 998.50 999.06 1000.25 1001.43 1002.09 1002.92 1004.30 1005.48 1006.86 1007.96 1008.97 1010.16 1010.89 1011.85 1012.42 1013.17 1013.88 1014.72 1015.42 1016.18 1016.89 1017.56 1018.07 1018.67
1001.53 1001.44 999.66 996.97 994.89 994.26 994.25 994.08 993.78 992.42 989.28 991.34 992.18 992.17 993.11 994.56 995.40 995.40 996.13 997.04 997.98 998.30 998.97 1000.03 1001.33 1001.96 1003.48 1005.08 1006.59 1008.18 1009.36 1010.18 1011.09 1011.90 1012.77 1013.60 1014.33 1014.92 1015.87 1016.58 1017.04 1017.69 1018.19 1018.67
1002.64 1002.48 999.42 997.37 995.78 994.96 993.62 992.04 992.03 991.43 988.55 987.93 989.82 990.75 991.61 992.14 993.02 994.40 995.32 996.25 997.16 997.76 998.84 999.91 1001.16 1002.28 1003.00 1004.58 1006.04 1007.68 1009.04 1010.12 1011.08 1012.24 1013.12 1013.80 1014.70 1015.31 1015.85 1016.45 1016.97 1017.61 1018.22 1018.62
1003.04 1000.87 999.47 997.27 995.04 994.47 993.47 991.34 989.77 989.53 987.93 988.86 989.56 990.47 989.99 989.92 991.39 992.64 993.57 994.35 995.12 995.91 997.18 999.02 1000.37 1001.84 1002.50 1003.93 1005.48 1007.01 1008.33 1009.57 1010.77 1011.90 1012.74 1013.56 1014.24 1015.09 1016.02 1016.56 1017.23 1017.53 1018.01 1018.33
1001.66 999.74 997.46 993.05 993.62 993.77 993.80 992.34 991.61 989.93 987.80 988.22 989.50 990.07 986.12 988.30 990.31 991.48 992.34 993.25 994.24 995.58 997.00 998.92 1000.18 1001.16 1001.98 1003.58 1004.99 1006.78 1008.05 1009.01 1010.38 1011.08 1011.87 1013.30 1014.32 1015.13 1015.83 1016.11 1016.82 1017.38 1017.79 1017.81
999.72 998.54 995.87 991.63 993.29 994.32 994.82 991.54 989.52 989.18 987.10 986.96 988.33 987.01 985.21 987.62 988.78 989.91 990.72 992.02 993.48 994.72 995.62 997.02 998.89 1000.44 1001.59 1003.22 1004.35 1006.24 1007.63 1008.60 1009.72 1010.68 1011.89 1013.03 1014.10 1014.75 1015.65 1016.13 1016.64 1016.96 1017.12 1017.47
998.37 997.39 995.38 992.04 992.48 992.78 991.60 990.77 990.86 989.90 987.54 986.65 987.08 986.81 986.75 987.60 988.29 989.13 990.19 991.53 992.88 993.85 995.25 997.14 998.44 999.61 1000.93 1002.37 1004.01 1006.05 1007.36 1008.29 1009.51 1010.64 1012.04 1013.13 1013.90 1014.66 1015.40 1015.86 1016.45 1016.85 1017.20 1017.85
995.95 994.32 992.24 991.22 990.29 989.71 990.06 990.52 989.94 989.53 988.78 987.73 986.02 985.79 985.68 986.88 987.53 988.11 989.10 990.56 991.96 993.13 995.19 996.61 997.53 998.27 999.97 1002.02 1003.77 1005.58 1007.04 1008.27 1009.74 1010.61 1011.90 1012.70 1013.32 1014.18 1015.14 1015.44 1015.96 1016.70 1016.99 1017.35
994.53 992.55 990.97 989.70 989.37 989.79 989.59 989.19 988.68 988.02 987.85 987.52 986.19 984.21 984.28 985.17 986.18 987.06 988.13 989.65 991.37 993.21 995.05 996.44 997.67 998.55 999.77 1001.69 1003.53 1005.02 1006.73 1008.26 1009.35 1010.48 1011.58 1012.51 1013.09 1013.53 1014.38 1015.06 1015.48 1016.12 1016.43 1016.99
992.36 990.70 990.19 988.75 988.67 988.72 988.10 987.63 986.39 987.15 986.99 986.75 985.74 983.96 983.62 984.39 985.24 986.21 987.59 989.21 990.74 991.88 993.58 995.30 997.23 998.33 999.56 1001.20 1003.02 1004.47 1006.37 1008.29 1009.22 1010.09 1011.01 1011.93 1012.64 1013.15 1013.68 1014.43 1014.82 1015.27 1015.63 1016.07
990.06 988.81 988.72 987.68 987.29 986.99 986.79 985.92 986.04 986.28 985.41 985.12 985.29 983.60 983.24 984.02 984.77 985.80 987.57 989.23 990.58 991.92 993.67 995.10 996.69 998.32 999.62 1000.82 1002.45 1004.23 1006.49 1007.75 1008.99 1009.90 1010.80 1011.53 1012.35 1013.25 1013.45 1013.88 1014.21 1014.78 1015.19 1015.53
988.35 987.95 988.00 987.41 986.79 986.22 985.85 985.56 985.67 985.86 984.99 985.77 984.41 983.48 983.14 984.04 985.16 986.34 987.47 988.80 990.28 991.49 993.30 995.03 996.48 998.28 999.54 1000.92 1002.01 1003.75 1005.49 1007.17 1008.79 1009.54 1010.50 1011.27 1012.13 1012.67 1013.30 1013.92 1014.27 1014.59 1014.85 1014.81
987.74 987.68 987.16 986.81 986.09 985.71 985.48 984.82 985.17 984.85 985.77 986.16 985.46 984.57 984.22 984.82 986.14 987.38 988.15 989.34 990.96 992.28 993.77 995.36 997.01 998.73 999.77 1000.99 1002.31 1003.76 1005.10 1006.68 1007.79 1009.12 1010.07 1010.88 1011.55 1012.21 1012.91 1013.67 1013.99 1014.41 1014.54 1014.81
987.03 986.85 986.19 985.74 985.38 984.54 984.42 984.44 985.02 985.71 986.20 986.22 985.84 985.17 985.08 986.32 987.12 988.58 989.83 991.03 992.24 993.34 994.69 995.93 997.42 999.38 1000.13 1001.19 1002.41 1003.80 1005.32 1006.78 1007.94 1009.06 1009.86 1010.48 1011.22 1011.95 1012.80 1013.51 1013.88 1014.08 1014.72 1014.77
986.14 985.70 985.53 985.32 985.42 984.86 984.65 985.08 985.84 986.30 986.22 985.90 986.11 986.73 987.20 988.18 988.38 990.03 991.63 992.23 993.14 995.09 995.78 996.65 998.24 999.67 1000.45 1001.36 1002.86 1004.41 1005.81 1006.99 1007.94 1008.65 1009.35 1010.25 1011.07 1011.76 1012.72 1013.00 1013.36 1013.74 1014.38 1014.36
985.24 984.99 984.75 984.69 984.83 985.41 985.44 985.80 985.99 986.09 986.33 986.96 987.68 987.96 989.10 990.23 991.06 991.77 993.07 993.96 994.38 996.19 997.10 997.90 999.41 1000.17 1001.11 1002.26 1003.31 1004.85 1006.15 1007.20 1008.05 1008.84 1009.42 1009.95 1010.82 1011.39 1011.83 1012.39 1012.99 1013.15 1013.35 1013.93
984.17 984.10 984.34 984.38 984.61 985.46 986.13 986.84 987.24 987.33 987.01 988.12 988.50 989.67 990.46 990.93 991.72 993.52 994.39 994.55 996.30 997.94 998.88 999.75 1000.32 1000.88 1001.83 1002.96 1003.91 1005.15 1006.05 1007.14 1008.14 1009.01 1009.55 1010.54 1010.97 1010.99 1011.23 1011.86 1012.34 1012.46 1012.74 1013.13
983.32 983.71 984.10 984.71 985.50 985.89 986.69 987.39 987.66 987.49 988.08 988.67 989.74 990.93 991.58 992.31 993.26 994.62 995.47 996.14 997.56 999.06 1000.90 1001.07 1001.23 1001.84 1002.41 1003.26 1004.14 1005.15 1006.29 1007.34 1008.24 1008.95 1009.56 1009.96 1010.52 1010.93 1011.13 1011.39 1011.80 1011.94 1012.08 1012.41
983.08 983.51 984.16 985.09 986.24 986.93 987.51 988.06 988.35 988.48 989.15 989.91 990.72 991.99 993.54 994.80 995.35 996.20 997.49 998.57 999.43 999.97 1000.96 1001.25 1001.79 1002.75 1003.18 1004.15 1004.79 1005.53 1006.39 1007.66 1008.28 1008.95 1009.27 1009.49 1010.09 1010.50 1010.56 1010.83 1011.13 1011.16 1011.45 1011.86
983.92 984.15 984.80 985.60 987.04 987.87 988.52 988.84 989.13 990.05 990.93 991.45 992.38 993.56 994.81 995.85 996.82 997.09 998.14 999.14 1000.24 1000.67 1001.05 1001.61 1002.50 1003.42 1004.11 1004.98 1005.47 1006.06 1006.64 1007.33 1008.12 1008.43 1008.90 1009.12 1009.58 1010.01 1009.92 1010.27 1010.35 1010.71 1010.87 1011.47
985.96 986.00 986.55 987.11 987.54 988.48 989.90 990.31 990.90 991.38 991.75 992.38 993.59 994.29 995.03 996.73 997.67 998.36 999.16 999.06 1000.38 1000.95 1001.80 1002.43 1003.14 1003.59 1004.28 1004.89 1005.59 1006.01 1006.54 1006.85 1007.34 1007.63 1008.21 1008.60 1008.94 1009.17 1009.39 1009.46 1009.63 1009.85 1010.39 1011.01
988.16 988.07 988.43 988.94 989.46 990.38 991.13 991.57 991.57 992.03 991.71 993.43 994.51 995.60 996.43 997.28 997.97 998.54 999.68 1000.48 1000.65 1001.54 1002.23 1002.83 1003.45 1003.72 1004.05 1004.81 1005.52 1005.82 1006.07 1006.45 1007.13 1007.20 1007.78 1008.16 1008.42 1008.56 1008.81 1008.99 1009.18 1009.48 1010.09 1010.75
989.77 989.98 990.42 991.02 991.25 991.61 992.29 992.98 992.60 992.50 993.85 995.41 995.91 996.71 997.12 997.56 998.67 999.38 1000.10 1000.70 1001.08 1001.58 1002.25 1003.13 1003.60 1004.02 1004.47 1005.12 1005.43 1005.41 1005.96 1006.50 1006.63 1006.97 1007.65 1007.75 1007.81 1008.05 1008.23 1008.57 1008.95 1009.48 1010.05 1010.58
991.41 991.66 991.77 992.03 992.53 993.52 993.79 993.63 994.14 994.95 996.13 996.91 997.10 997.74 998.41 998.62 998.80 1000.11 1000.51 1001.09 1001.74 1002.27 1002.90 1003.16 1003.41 1003.79 1004.17 1004.80 1005.28 1005.48 1005.91 1006.13 1006.43 1007.14 1007.32 1007.26 1007.47 1007.92 1008.17 1008.42 1008.88 1009.43 1009.93 1010.41
992.67 992.82 993.18 993.51 994.05 994.72 995.21 995.44 995.79 996.80 997.14 997.69 998.48 998.86 999.27 999.38 999.81 1000.34 1001.13 1001.73 1002.17 1002.51 1002.85 1003.17 1003.69 1003.95 1004.35 1004.73 1005.14 1005.30 1005.70 1006.12 1006.43 1006.69 1006.69 1007.10 1007.50 1007.93 1008.12 1008.48 1009.04 1009.49 1009.89 1010.31
994.03 994.18 994.36 994.94 995.37 995.92 996.15 996.40 996.90 997.49 997.98 998.37 998.79 999.31 999.88 999.48 1000.11 1001.29 1001.86 1002.31 1002.71 1002.90 1003.00 1003.49 1003.96 1004.18 1004.41 1004.48 1005.05 1005.29 1005.63 1005.73 1005.75 1006.40 1006.87 1007.27 1007.57 1007.89 1008.28 1008.68 1009.19 1009.56 1009.96 1010.30
Thickness
5530 5578 5579 5581 5578 5579 5581 5600 5586 5635 5638 5674 5651 5648 5657 5661 5650 5651 5655 5653 5653 5648 5643 5639 5632 5626 5622 5612 5605 5601 5597 5590 5584 5578 5575 5569 5563 5557 5550 5543 5537 5531 5522 5515
5471 5490 5540 5561 5576 5572 5575 5592 5595 5617 5622 5673 5646 5638 5640 5642 5642 5643 5646 5653 5650 5649 5638 5629 5627 5623 5613 5604 5597 5591 5586 5578 5573 5565 5562 5557 5551 5544 5537 5529 5522 5515 5509 5502
5456 5464 5464 5498 5546 5567 5574 5575 5588 5595 5652 5662 5641 5655 5653 5636 5638 5646 5645 5640 5638 5640 5637 5629 5621 5619 5608 5598 5588 5578 5570 5565 5560 5554 5549 5542 5536 5531 5521 5514 5508 5502 5497 5489
5427 5425 5448 5493 5519 5529 5558 5587 5595 5609 5655 5676 5660 5654 5645 5652 5649 5642 5638 5631 5627 5628 5624 5619 5610 5605 5603 5592 5582 5570 5560 5554 5547 5540 5533 5527 5520 5515 5511 5505 5500 5493 5484 5477
5398 5421 5438 5480 5518 5538 5549 5570 5613 5614 5645 5649 5639 5637 5647 5667 5655 5648 5642 5637 5633 5631 5625 5612 5605 5595 5594 5586 5575 5564 5555 5546 5538 5531 5525 5518 5514 5508 5500 5494 5486 5481 5473 5467
5378 5406 5421 5529 5536 5536 5533 5508 5565 5598 5632 5635 5625 5606 5678 5671 5652 5646 5643 5637 5632 5624 5616 5600 5592 5588 5586 5576 5566 5554 5546 5540 5530 5525 5521 5511 5502 5496 5489 5487 5477 5469 5462 5458
5398 5393 5431 5545 5528 5514 5463 5541 5588 5594 5628 5636 5615 5639 5686 5657 5653 5648 5642 5634 5626 5620 5617 5608 5593 5584 5579 5568 5561 5546 5535 5531 5524 5519 5511 5502 5495 5488 5479 5474 5466 5459 5455 5446
5400 5395 5408 5532 5516 5494 5521 5536 5542 5552 5594 5614 5615 5626 5640 5632 5635 5635 5631 5624 5620 5617 5609 5595 5587 5581 5573 5565 5553 5535 5527 5524 5515 5508 5499 5491 5486 5478 5470 5463 5455 5447 5438 5427
5408 5424 5468 5488 5504 5517 5522 5530 5542 5546 5558 5576 5600 5612 5630 5618 5622 5627 5627 5618 5615 5609 5594 5586 5584 5583 5570 5555 5539 5529 5520 5512 5502 5497 5488 5484 5480 5470 5459 5454 5446 5433 5426 5418
5420 5451 5469 5493 5501 5504 5521 5526 5537 5548 5554 5564 5584 5615 5621 5619 5619 5620 5618 5612 5603 5591 5579 5572 5569 5568 5560 5544 5531 5523 5512 5502 5496 5490 5482 5476 5471 5464 5454 5443 5433 5423 5418 5407
5426 5454 5459 5478 5490 5500 5515 5531 5547 5543 5548 5559 5576 5603 5612 5612 5613 5613 5610 5602 5594 5590 5580 5571 5560 5556 5548 5537 5528 5519 5506 5493 5488 5483 5478 5470 5460 5453 5444 5433 5426 5417 5410 5401
5431 5456 5447 5471 5487 5494 5503 5530 5540 5540 5553 5565 5573 5595 5605 5603 5606 5607 5598 5589 5583 5576 5566 5560 5555 5545 5536 5532 5523 5511 5494 5486 5478 5473 5466 5458 5448 5436 5432 5423 5417 5409 5400 5392
5441 5451 5444 5454 5472 5488 5503 5523 5532 5530 5544 5542 5563 5583 5593 5593 5592 5590 5587 5581 5575 5571 5561 5553 5547 5534 5527 5521 5515 5503 5492 5479 5467 5462 5453 5445 5436 5429 5422 5412 5405 5397 5389 5384
5434 5434 5436 5453 5470 5477 5492 5508 5509 5521 5522 5524 5534 5554 5569 5573 5567 5566 5568 5563 5556 5552 5546 5540 5530 5519 5514 5508 5499 5491 5481 5471 5464 5453 5443 5436 5427 5419 5411 5402 5395 5386 5381 5371
5425 5428 5437 5450 5456 5475 5484 5493 5494 5500 5506 5509 5519 5531 5546 5546 5544 5537 5531 5529 5528 5527 5522 5518 5511 5495 5494 5491 5485 5477 5469 5458 5449 5439 5432 5426 5416 5409 5398 5387 5379 5375 5363 5359
5416 5425 5431 5437 5443 5460 5473 5480 5483 5487 5498 5507 5509 5510 5515 5514 5521 5513 5508 5514 5515 5506 5503 5501 5492 5483 5482 5478 5469 5460 5452 5443 5436 5431 5425 5415 5405 5396 5382 5378 5372 5364 5354 5351
5408 5413 5425 5435 5447 5450 5460 5465 5475 5487 5490 5491 5486 5491 5489 5487 5486 5489 5487 5487 5491 5483 5480 5478 5469 5468 5465 5459 5455 5444 5435 5428 5421 5416 5410 5404 5391 5382 5377 5369 5360 5356 5351 5343
5416 5421 5426 5429 5439 5442 5445 5449 5455 5464 5478 5472 5474 5473 5475 5476 5474 5467 5466 5472 5464 5455 5454 5451 5450 5451 5448 5442 5437 5429 5424 5415 5408 5398 5391 5380 5377 5375 5369 5360 5354 5350 5345 5339
5416 5418 5422 5425 5426 5435 5437 5438 5442 5449 5455 5460 5458 5450 5450 5451 5450 5444 5446 5449 5443 5436 5423 5428 5431 5432 5431 5429 5425 5419 5410 5400 5393 5386 5379 5375 5367 5362 5358 5352 5346 5343 5340 5335
5418 5422 5419 5417 5413 5414 5420 5421 5425 5432 5433 5436 5436 5431 5423 5418 5420 5423 5420 5417 5417 5419 5415 5416 5417 5413 5415 5409 5407 5403 5397 5386 5380 5374 5370 5365 5358 5354 5350 5345 5342 5341 5336 5330
5407 5413 5415 5411 5401 5401 5407 5412 5415 5415 5415 5417 5416 5413 5407 5403 5402 5409 5408 5405 5399 5402 5405 5405 5402 5399 5395 5390 5389 5384 5378 5373 5367 5364 5359 5356 5350 5345 5344 5340 5339 5335 5332 5323
5384 5391 5395 5396 5400 5397 5394 5397 5396 5398 5399 5402 5398 5399 5401 5392 5391 5389 5390 5398 5391 5391 5390 5390 5387 5387 5383 5379 5376 5372 5370 5367 5363 5359 5353 5347 5344 5341 5338 5337 5335 5332 5325 5316
5364 5371 5376 5376 5379 5378 5376 5379 5383 5385 5393 5390 5387 5385 5386 5385 5384 5385 5381 5378 5383 5379 5378 5376 5372 5375 5375 5369 5364 5362 5360 5356 5350 5349 5343 5339 5336 5335 5334 5331 5328 5324 5317 5310
5351 5353 5354 5353 5358 5361 5361 5359 5367 5372 5372 5367 5369 5369 5372 5372 5370 5369 5368 5367 5369 5368 5366 5361 5359 5358 5356 5352 5353 5354 5348 5343 5342 5339 5332 5329 5330 5330 5328 5325 5320 5315 5309 5302
5337 5336 5340 5346 5344 5340 5343 5350 5353 5354 5351 5349 5352 5352 5352 5355 5361 5353 5354 5353 5351 5350 5347 5348 5351 5350 5348 5345 5341 5338 5337 5334 5330 5324 5322 5323 5322 5321 5319 5316 5312 5307 5303 5298
5330 5332 5331 5332 5330 5327 5329 5333 5335 5333 5335 5336 5334 5336 5336 5339 5340 5341 5338 5337 5337 5339 5339 5339 5338 5337 5335 5333 5330 5329 5326 5322 5318 5317 5317 5314 5312 5311 5310 5307 5303 5300 5297 5292
5316 5319 5321 5318 5318 5319 5321 5323 5323 5322 5322 5324 5324 5323 5321 5328 5327 5324 5324 5325 5326 5327 5329 5328 5326 5325 5325 5324 5321 5318 5314 5313 5313 5308 5305 5304 5303 5302 5300 5298 5295 5292 5289 5285